Regional Weather Roundup
Issued by NWS Upton, NY

Current Version | Previous Version | Graphics & Text | Print | Product List | Glossary Off
Versions: 1 2 3 4 5 6 7 8 9 10 11 12 13 14 15 16 17 18 19 20 21 22 23 24 25 26 27 28 29 30 31 32 33 34 35 36 37 38 39 40 41 42 43 44 45 46 47 48 49 50

181
ASUS41 KOKX 120004
RWROKX

REGIONAL WEATHER ROUNDUP
NATIONAL WEATHER SERVICE NEW YORK NY
700 PM EST THU FEB 11 2016

NOTE: "FAIR" INDICATES FEW OR NO CLOUDS BELOW 12,000 FEET WITH NO
SIGNIFICANT WEATHER AND/OR OBSTRUCTIONS TO VISIBILITY.

NYZ071-072-176-178-NJZ106-104-120100-
NEW YORK CITY METRO AREA


CITY           SKY/WX    TMP DP  RH WIND       PRES   REMARKS
CENTRAL PARK   CLEAR     22  -6  29 NW12G25   30.09R WCI  10
LAGUARDIA APRT PTCLDY    23  -2  33 NW23G37   30.07R WCI   7
KENNEDY INTL   PTCLDY    24  -5  27 NW26G39   30.09R WCI   8
NEWARK/LIBERTY PTCLDY    22  -4  32 NW20G35   30.09R WCI   7
BRNX BOT. GARD   N/A     23   0  36 NW22      30.08R WCI   8
TETERBORO      CLEAR     21  -5  31 W17G26    30.08R WCI   7
$$

NYZ177-179-078>081-120100-
LONG ISLAND NEW YORK

CITY           SKY/WX    TMP DP  RH WIND       PRES   REMARKS
FARMINGDALE    PTCLDY    22  -3  33 NW14G22   30.05R WCI   9
ISLIP          PTCLDY    21  -1  38 NW24G35   30.02R WCI   4
SHIRLEY        PTCLDY    21  -1  38 NW15G31   30.04R WCI   8
RIVERHEAD        N/A     23  -8  25 W15       29.99R WCI  10
WESTHAMPTON    CLOUDY    20  -1  40 W22G35    30.03R WCI   3
EAST HAMPTON   MOCLDY    21  -2  35 W20G33    29.98R WCI   6
MONTAUK POINT    N/A     22   2  42 W17G36    29.98R WCI   8
$$

NYZ052-065-067-120100-
HUDSON VALLEY

CITY           SKY/WX    TMP DP  RH WIND       PRES   REMARKS
WHITE PLAINS   CLEAR     19  -4  36 W22G38    30.01R WCI   2
NEWBURGH       CLEAR     14   3  62 NW22G31   30.05R WCI  -4
MONTGOMERY     CLEAR     16   1  51 NW15G23   30.05R WCI   1
POUGHKEEPSIE   CLEAR     18  -4  37 W16G29    30.06R WCI   3
ALBANY         FLURRIES  12   0  58 W14G37    30.04R WCI  -3
$$

NJZ001-105-106-008-010-013-015-019>022-104-120100-
NEW JERSEY

CITY           SKY/WX    TMP DP  RH WIND       PRES   REMARKS
NEWARK/LIBERTY PTCLDY    22  -4  32 NW20G35   30.09R WCI   7
TETERBORO      CLEAR     21  -5  31 W17G26    30.08R WCI   7
CALDWELL       CLEAR     21  -6  30 NW20G33   30.08R WCI   6
MORRISTOWN     PTCLDY    19   0  42 NW14G24   30.09R WCI   6
SOMERVILLE     PTCLDY    22  -2  35 NW15G23   30.09R WCI   9
SUSSEX         CLEAR     17  -1  45 NW9       30.06R WCI   6
ANDOVER          N/A     17  -4  39 VRB7G18   30.07R WCI   8
TRENTON        PTCLDY    21   8  57 W13       30.12R WCI   9
MILLVILLE      CLEAR     23   2  40 W16G23    30.18R WCI  10
ATLANTIC CITY  CLEAR     23   1  38 W14G23    30.16R WCI  11
WRIGHTSTOWN    MOCLDY    23   2  41 W16       30.10R WCI   9
TOMS RIVER     CLEAR     21   1  42 W16       30.12R WCI   7
BELMAR         PTCLDY    21   1  42 W14G22    30.09R WCI   8
$$

PAZ047>061-062-071-120100-
EASTERN PENNSYLVANIA

CITY           SKY/WX    TMP DP  RH WIND       PRES   REMARKS
PHILADELPHIA   PTCLDY    24  -2  32 W20G29    30.17R WCI  10
ALLENTOWN      CLEAR     19   7  59 W10       30.11R WCI   7
SCRANTON       PTCLDY    15  -2  46 NW12G21   30.07R WCI   2
$$

CTZ002-004>006-009-010-012-RIZ004-006-007-MAZ004-011-015-120100-
SOUTHERN NEW ENGLAND
 IN CT

CITY           SKY/WX    TMP DP  RH WIND       PRES   REMARKS
BRADLEY INTL   PTCLDY    14  -2  49 W22G29    29.99R WCI  -4
HARTFORD       PTCLDY    17  -1  45 NW12      30.02R WCI   4
DANBURY        CLEAR     16  -6  37 W12G29    30.03R WCI   3
WTRBRY/OXFORD  MOCLDY    16  -9  32 NW15G29   29.97R WCI   1
BRIDGEPORT     CLEAR     20  -3  36 NW28G38   30.03R WCI   2
MERIDEN        CLEAR     19  -6  33 NW18G29   30.01R WCI   4
NEW HAVEN      PTCLDY    20  -1  40 NW16G25   30.03R WCI   6
CHESTER        FAIR      19  -4  35 NW15G28   29.97R WCI   5
GROTON         PTCLDY    18   4  54 NW20G25   29.98R WCI   2
WILLIMANTIC    CLEAR     16   0  49 NW8       29.98R WCI   5

 IN RI

CITY           SKY/WX    TMP DP  RH WIND       PRES   REMARKS
PROVIDENCE     PTCLDY    17  -3  41 NW17G35   29.95R WCI   1
BLOCK ISLAND   MOCLDY    21   7  53 NW16G29   29.93R WCI   7
WESTERLY       CLEAR     19   2  47 NW8G23    29.97R WCI   9

 IN MA

CITY           SKY/WX    TMP DP  RH WIND       PRES   REMARKS
BOSTON         PTCLDY    17  -3  41 W24G32    29.89R WCI  -1
WORCESTER      CLEAR      9  -6  50 W22G35    29.84R WCI -11
WESTFIELD      CLEAR     13  -3  49 W15G25    29.98R WCI  -3
PROVINCETOWN   PTCLDY    21   6  52 W29G40    29.85R WCI   3
NANTUCKET      MOCLDY    24   6  46 NW23G33   29.87R WCI   9
$$

ANZ330-335-338-340-345-350-353-355-120100-
COASTAL MARINE OBSERVATIONS


STATION/POSITION TIME  SKY/WX   TEMP    WIND        PRES    VSBY  WAVE
                                AIR SEA DIR/SP/G                  HT/PER
                 (UTC)          (F)     (DEG/KT/KT) (MB)    (MI)  (FT/S)
NY HARB ENTRANCE 2250            26 42  280/ 29/ 37 1016.2          5/ 5
4S FIRE IS       NOT AVBL
20S FIRE ISLAND  2250            27 44  300/ 31/ 39 1015.1          9/ 7
GREAT SOUTH BAY  NOT AVBL
23SW MTP         2350            26 45  290/ 31/ 39 1014.0         10/ 7
HUDSON CANYON    2250            29 48              1015.4         12/ 8
KINGS POINT      2300            24 37  350/ 23/ 27 1016.6
EXECUTION ROCKS  NOT AVBL
CENTRAL LI SOUND 2300            24     280/ 25/ 35   N/A           5/ 5
EASTERN LI SOUND 2300            26 41  300/ 23/ 31   N/A
ROBBINS REEF     2300            23     290/ 23/ 29 1016.7
$$


>>>>>>>>>>>>>>>>>>>>>>>>>>>> KEY <<<<<<<<<<<<<<<<<<<<<<<<<<<
>                                                          <
>     SKY/WX - SKY CONDITION/PRESENT WEATHER               <
>     TMP    - TEMPERATURE IN FAHRENHEIT                   <
>     DP     - DEWPOINT IN FAHRENHEIT                      <
>     RH     - RELATIVE HUMIDITY IN PERCENT                <
>     WIND   - DIRECTION AND SPEED IN MPH                  <
>     PRES   - MEAN SEA LEVEL PRESSURE IN INCHES OF HG     <
>     WCI    - WIND CHILL INDEX                            <
>     VSB    - VISIBILITY IN MILES                         <
>     HX     - HEAT INDEX                                  <
>     TC     - TEMPERATURE IN CELSIUS                      <
>     VRB    - VARIABLE WIND DIRECTION                     <
>                                                          <
>>>>>>>>>>>>>>>>>>>>>>>>>>>> KEY <<<<<<<<<<<<<<<<<<<<<<<<<<<






USA.gov is the U.S. government's official web portal to all federal, state and local government web resources and services.